CW5102 Weather Reports


Display with metric or nautical units.
time (UTC)temp
F
wind
direction
speed
MPH
gust
MPH
rain 1hr
in
rain 24hr
in
rain mn
in
humidity
%
barometer
mb
20260506141205 39 9 1.0 12.0 0.00 0.00 0.00 49 1015.8
20260506140706 39 45 2.0 13.0 0.00 0.00 0.00 49 1015.8
20260506140205 39 321 3.0 13.0 0.00 0.00 0.00 48 1015.8
20260506135704 39 355 4.0 10.0 0.00 0.00 0.00 48 1015.7
20260506135205 39 18 3.0 9.0 0.00 0.00 0.00 48 1015.7
20260506134705 39 25 2.0 7.0 0.00 0.00 0.00 48 1015.7
20260506134204 39 19 1.0 12.0 0.00 0.00 0.00 49 1015.6
20260506133705 39 40 3.0 12.0 0.00 0.00 0.00 48 1015.6
20260506133205 39 0 1.0 12.0 0.00 0.00 0.00 49 1015.5
20260506132704 39 14 3.0 12.0 0.00 0.00 0.00 49 1015.5
20260506132204 39 350 0.0 6.0 0.00 0.00 0.00 51 1015.4
20260506131704 39 7 1.0 6.0 0.00 0.00 0.00 52 1015.4
20260506131205 38 10 1.0 7.0 0.00 0.00 0.00 52 1015.3
20260506130705 38 270 0.0 8.0 0.00 0.00 0.00 53 1015.3
20260506130205 38 53 1.0 8.0 0.00 0.00 0.00 51 1015.2
20260506125205 38 1 3.0 12.0 0.00 0.00 0.00 52 1015.0
20260506124705 38 8 1.0 12.0 0.00 0.00 0.00 54 1015.0
20260506124205 38 9 5.0 12.0 0.00 0.00 0.00 53 1014.9
20260506123704 37 19 2.0 7.0 0.00 0.00 0.00 55 1014.8
20260506123205 37 351 3.0 9.0 0.00 0.00 0.00 56 1014.8
20260506122706 37 15 0.0 9.0 0.00 0.00 0.00 57 1014.7
20260506122205 36 1 2.0 9.0 0.00 0.00 0.00 57 1014.7
20260506121705 36 18 2.0 7.0 0.00 0.00 0.00 59 1014.6
20260506121206 36 3 1.0 3.0 0.00 0.00 0.00 58 1014.5
20260506120705 36 20 2.0 7.0 0.00 0.00 0.00 59 1014.4
20260506115705 35 62 1.0 9.0 0.00 0.00 0.00 59 1014.3
20260506114206 35 34 1.0 8.0 0.00 0.00 0.00 60 1014.1
20260506113705 35 28 2.0 7.0 0.00 0.00 0.00 60 1014.0
20260506112705 35 25 1.0 6.0 0.00 0.00 0.00 59 1013.8
20260506112205 35 14 1.0 6.0 0.00 0.00 0.00 60 1013.8
20260506111705 35 6 1.0 6.0 0.00 0.00 0.00 60 1013.8
20260506111205 35 9 2.0 5.0 0.00 0.00 0.00 60 1013.9
20260506110705 35 353 2.0 6.0 0.00 0.00 0.00 60 1014.0
20260506110205 35 7 0.0 6.0 0.00 0.00 0.00 61 1014.0
20260506105705 35 3 1.0 6.0 0.00 0.00 0.00 61 1014.1
20260506105205 35 1 1.0 3.0 0.00 0.00 0.00 61 1014.2
20260506104705 35 357 0.0 0.0 0.00 0.00 0.00 61 1014.2
20260506103705 35 357 0.0 2.0 0.00 0.00 0.00 61 1014.0
20260506103204 35 357 0.0 2.0 0.00 0.00 0.00 60 1013.9
20260506102705 35 355 0.0 0.0 0.00 0.00 0.00 60 1013.8
20260506102205 35 355 0.0 0.0 0.00 0.00 0.00 60 1013.7
20260506101704 35 355 0.0 0.0 0.00 0.00 0.00 59 1013.6
20260506101205 35 355 0.0 3.0 0.00 0.00 0.00 59 1013.6
20260506100705 35 355 0.0 3.0 0.00 0.00 0.00 59 1013.5
20260506100205 35 357 1.0 3.0 0.00 0.00 0.00 58 1013.6
20260506095706 35 0 0.0 3.0 0.00 0.00 0.00 58 1013.6
20260506095205 35 0 0.0 3.0 0.00 0.00 0.00 58 1013.6
20260506094705 35 0 0.0 3.0 0.00 0.00 0.00 58 1013.6
20260506093204 35 0 0.0 3.0 0.00 0.00 0.00 57 1013.5
20260506092705 35 0 0.0 2.0 0.00 0.00 0.00 57 1013.6
20260506092205 35 0 0.0 3.0 0.00 0.00 0.00 57 1013.5
20260506091705 35 0 0.0 3.0 0.00 0.00 0.00 57 1013.6
20260506091205 35 26 0.0 3.0 0.00 0.00 0.00 57 1013.6
20260506090205 35 29 1.0 3.0 0.00 0.00 0.00 56 1013.5
20260506085705 35 29 1.0 3.0 0.00 0.00 0.00 56 1013.5
20260506085205 35 29 0.0 0.0 0.00 0.00 0.00 57 1013.4
20260506084705 35 29 0.0 0.0 0.00 0.00 0.00 56 1013.3
20260506084205 35 29 0.0 0.0 0.00 0.00 0.00 56 1013.2
20260506083705 36 29 0.0 0.0 0.00 0.00 0.00 56 1013.1
20260506083206 36 29 0.0 0.0 0.00 0.00 0.00 56 1013.2
20260506082705 36 29 0.0 0.0 0.00 0.00 0.00 56 1013.2
20260506082205 36 29 0.0 3.0 0.00 0.00 0.00 56 1013.2
20260506081705 36 29 0.0 3.0 0.00 0.00 0.00 56 1013.3
20260506081205 36 29 0.0 0.0 0.00 0.00 0.00 55 1013.3
20260506080705 36 29 0.0 0.0 0.00 0.00 0.00 55 1013.4
20260506080205 36 29 0.0 0.0 0.00 0.00 0.00 54 1013.4
20260506073205 37 29 0.0 2.0 0.00 0.00 0.00 53 1013.0
20260506072705 37 29 0.0 0.0 0.00 0.00 0.00 52 1012.9
20260506072205 37 29 0.0 0.0 0.00 0.00 0.00 52 1012.9
20260506071705 37 29 0.0 2.0 0.00 0.00 0.00 51 1012.9
20260506070705 37 29 0.0 3.0 0.00 0.00 0.00 51 1013.0
20260506070205 37 29 0.0 6.0 0.00 0.00 0.00 51 1013.1
20260506062205 38 26 1.0 3.0 0.00 0.00 0.00 49 1013.0
20260506061705 38 26 0.0 6.0 0.00 0.00 0.00 50 1013.0
20260506061205 38 26 1.0 7.0 0.00 0.00 0.00 49 1013.2
20260506060705 38 31 1.0 7.0 0.00 0.00 0.00 48 1013.1
20260506060206 38 16 1.0 8.0 0.00 0.00 0.00 48 1013.1
20260506051205 39 40 1.0 7.0 0.00 0.00 0.00 47 1012.8
20260506050705 40 44 1.0 8.0 0.00 0.00 0.00 47 1012.7
20260506050205 40 354 2.0 12.0 0.00 0.00 0.00 47 1012.7
20260506044705 40 55 2.0 9.0 0.00 0.00 0.00 47 1012.4
20260506044205 40 43 2.0 8.0 0.00 0.00 0.00 48 1012.4
20260506043706 40 5 2.0 8.0 0.00 0.00 0.00 48 1012.4
20260506042705 40 34 3.0 7.0 0.00 0.00 0.00 47 1012.4
20260506042205 41 28 0.0 5.0 0.00 0.00 0.00 47 1012.4
20260506041705 41 30 0.0 5.0 0.00 0.00 0.00 47 1012.4
20260506041205 41 0 1.0 5.0 0.00 0.00 0.00 47 1012.4
20260506040706 41 10 2.0 5.0 0.00 0.00 0.00 46 1012.5
20260506040205 41 358 1.0 3.0 0.00 0.00 0.00 47 1012.5
20260506035705 41 350 1.0 7.0 0.00 0.00 0.00 46 1012.5
20260506035205 41 10 0.0 9.0 0.00 0.00 0.00 46 1012.5
20260506034705 41 29 1.0 9.0 0.00 0.00 0.00 46 1012.5
20260506034206 42 33 1.0 7.0 0.00 0.00 0.00 45 1012.4
20260506033706 42 41 1.0 10.0 0.00 0.00 0.00 45 1012.3
20260506033205 42 65 1.0 10.0 0.00 0.00 0.00 45 1012.3
20260506032705 42 44 1.0 12.0 0.00 0.00 0.00 45 1012.2
20260506031705 42 38 2.0 12.0 0.00 0.00 0.00 44 1012.2
20260506031205 42 18 5.0 12.0 0.00 0.00 0.00 44 1012.2
20260506030705 43 9 3.0 12.0 0.00 0.00 0.00 44 1012.2
20260506030205 43 43 3.0 12.0 0.00 0.00 0.00 43 1012.1
20260506025706 43 36 3.0 8.0 0.00 0.00 0.00 44 1012.0
20260506025205 43 39 2.0 10.0 0.00 0.00 0.00 43 1012.0
20260506024707 43 64 2.0 12.0 0.00 0.00 0.00 43 1011.8
20260506024206 44 27 5.0 12.0 0.00 0.00 0.00 42 1011.7
20260506023706 44 13 2.0 9.0 0.00 0.00 0.00 43 1011.6
20260506023206 44 0 1.0 12.0 0.00 0.00 0.00 42 1011.6
20260506022706 44 348 1.0 12.0 0.00 0.00 0.00 42 1011.5
20260506021706 44 347 4.0 12.0 0.00 0.00 0.00 41 1011.5
20260506021206 44 12 3.0 13.0 0.00 0.00 0.00 41 1011.4
20260506020205 45 0 1.0 7.0 0.00 0.00 0.00 41 1011.2
20260506015706 45 17 1.0 7.0 0.00 0.00 0.00 40 1011.1
20260506015205 45 32 1.0 7.0 0.00 0.00 0.00 39 1011.0
20260506014706 45 16 1.0 14.0 0.00 0.00 0.00 39 1010.9
20260506014206 45 4 2.0 14.0 0.00 0.00 0.00 39 1010.9
20260506005703 47 352 3.0 12.0 0.00 0.00 0.00 36 1010.5
20260506004203 48 5 7.0 17.0 0.00 0.00 0.00 35 1010.3
20260506003702 48 4 5.0 15.0 0.00 0.00 0.00 34 1010.3
20260506002703 48 24 4.0 15.0 0.00 0.00 0.00 34 1010.1
20260506002204 48 10 2.0 15.0 0.00 0.00 0.00 34 1010.1
20260506001203 49 345 5.0 13.0 0.00 0.00 0.00 34 1009.9
20260506000205 49 345 2.0 9.0 0.00 0.00 0.00 34 1009.9
20260505235703 49 13 2.0 12.0 0.00 0.00 0.00 34 1009.9
20260505235203 49 352 1.0 12.0 0.00 0.00 0.00 34 1009.8
20260505234704 49 19 3.0 12.0 0.00 0.00 0.00 33 1009.8
20260505234203 49 19 2.0 10.0 0.00 0.00 0.00 33 1009.9
20260505233703 49 1 1.0 10.0 0.00 0.00 0.00 33 1009.7
20260505233202 49 13 5.0 10.0 0.00 0.00 0.00 33 1009.7
20260505232703 49 337 2.0 14.0 0.00 0.00 0.00 33 1009.7
20260505232203 49 23 5.0 14.0 0.00 0.00 0.00 32 1009.6
20260505231703 49 344 1.0 13.0 0.00 0.00 0.00 33 1009.6
20260505231203 49 356 1.0 12.0 0.00 0.00 0.00 33 1009.6
20260505225202 51 359 5.0 12.0 0.00 0.00 0.00 32 1009.6
20260505224703 51 328 2.0 10.0 0.00 0.00 0.00 34 1009.5
20260505224203 50 313 1.0 10.0 0.00 0.00 0.00 33 1009.5
20260505223703 50 12 4.0 10.0 0.00 0.00 0.00 34 1009.6
20260505223203 50 310 2.0 10.0 0.00 0.00 0.00 35 1009.5
20260505222203 50 356 4.0 10.0 0.00 0.00 0.00 33 1009.6
20260505221702 50 278 2.0 15.0 0.00 0.00 0.00 33 1009.6
20260505221203 50 333 2.0 16.0 0.00 0.00 0.00 33 1009.5
20260505215703 51 5 1.0 8.0 0.00 0.00 0.00 33 1009.6
20260505215203 51 337 2.0 10.0 0.00 0.00 0.00 34 1009.7
20260505214702 50 0 1.0 13.0 0.00 0.00 0.00 34 1009.8
20260505213203 50 0 1.0 12.0 0.00 0.00 0.00 33 1009.8
20260505212203 51 3 6.0 17.0 0.00 0.00 0.00 32 1009.8
20260505211702 51 14 7.0 16.0 0.00 0.00 0.00 31 1009.8
20260505211203 51 346 3.0 16.0 0.00 0.00 0.00 33 1009.9
20260505210703 51 9 4.0 13.0 0.00 0.00 0.00 32 1009.8
20260505210202 52 356 1.0 13.0 0.00 0.00 0.00 33 1009.9
20260505205703 51 357 0.0 9.0 0.00 0.00 0.00 34 1009.9
20260505204204 51 350 0.0 13.0 0.00 0.00 0.00 33 1009.8
20260505203703 51 319 3.0 13.0 0.00 0.00 0.00 33 1009.9
20260505203203 51 248 3.0 16.0 0.00 0.00 0.00 33 1009.9
20260505202703 51 40 3.0 16.0 0.00 0.00 0.00 32 1010.0
20260505202203 51 12 1.0 12.0 0.00 0.00 0.00 34 1010.0
20260505201703 51 29 6.0 14.0 0.00 0.00 0.00 32 1010.0
20260505201203 51 359 2.0 14.0 0.00 0.00 0.00 33 1010.0
20260505200703 51 10 3.0 10.0 0.00 0.00 0.00 33 1010.0
20260505195703 51 29 6.0 14.0 0.00 0.00 0.00 31 1010.0
20260505194703 51 22 4.0 15.0 0.00 0.00 0.00 32 1010.0
20260505193704 51 15 3.0 12.0 0.00 0.00 0.00 33 1009.9
20260505192703 51 36 5.0 12.0 0.00 0.00 0.00 31 1009.9
20260505192204 51 352 4.0 13.0 0.00 0.00 0.00 33 1010.0
20260505191703 51 25 2.0 13.0 0.00 0.00 0.00 32 1009.9
20260505191203 52 354 4.0 12.0 0.00 0.00 0.00 30 1010.0
20260505190703 52 274 1.0 10.0 0.00 0.00 0.00 33 1009.9
20260505190204 52 342 2.0 10.0 0.00 0.00 0.00 33 1010.0
20260505185203 52 321 2.0 12.0 0.00 0.00 0.00 33 1010.0
20260505183703 50 341 1.0 13.0 0.00 0.00 0.00 34 1010.0
20260505183203 50 19 1.0 13.0 0.00 0.00 0.00 34 1009.9
20260505182203 50 5 3.0 10.0 0.00 0.00 0.00 33 1010.0
20260505181703 50 18 2.0 12.0 0.00 0.00 0.00 33 1010.2
20260505180704 50 311 2.0 16.0 0.00 0.00 0.00 34 1010.1
20260505180204 50 1 5.0 14.0 0.00 0.00 0.00 32 1010.1
20260505175704 50 15 1.0 8.0 0.00 0.00 0.00 34 1010.0
20260505174703 50 0 2.0 14.0 0.00 0.00 0.00 33 1010.1
20260505174203 50 29 2.0 14.0 0.00 0.00 0.00 33 1010.1
20260505173703 50 18 2.0 14.0 0.00 0.00 0.00 33 1010.1
20260505173203 50 323 1.0 7.0 0.00 0.00 0.00 34 1010.1
20260505172704 50 341 3.0 10.0 0.00 0.00 0.00 33 1010.0
20260505172203 49 308 2.0 12.0 0.00 0.00 0.00 34 1010.1
20260505171703 49 0 3.0 12.0 0.00 0.00 0.00 33 1010.1
20260505170703 49 6 3.0 12.0 0.00 0.00 0.00 33 1010.0
20260505165703 49 0 2.0 12.0 0.00 0.00 0.00 33 1010.1
20260505165203 49 299 3.0 14.0 0.00 0.00 0.00 34 1010.1
20260505164203 49 56 1.0 13.0 0.00 0.00 0.00 35 1010.1
20260505163203 48 355 0.0 13.0 0.00 0.00 0.00 36 1010.0
20260505162203 48 1 5.0 12.0 0.00 0.00 0.00 34 1010.1
20260505161203 47 68 5.0 13.0 0.00 0.00 0.00 33 1010.0
20260505160703 47 272 1.0 15.0 0.00 0.00 0.00 34 1010.1
20260505153203 46 48 0.0 9.0 0.00 0.00 0.00 36 1010.0
20260505152203 46 7 1.0 12.0 0.00 0.00 0.00 37 1010.0
20260505151704 46 42 3.0 12.0 0.00 0.00 0.00 35 1010.0
20260505151203 46 26 1.0 9.0 0.00 0.00 0.00 38 1009.9
20260505150204 45 17 2.0 10.0 0.00 0.00 0.00 38 1009.9